Simultaneous Nadir Overpasses (SNOs) Predictions

Prediction of SNOs between AQUA and METOP-B Satellite Orbit:

Table of predicted SNOs for the next 14.0 days since TLE Epoch: 9/11/2020
Index Date (AQUA) Time (AQUA) Lat,Lon (AQUA) SZA (AQUA ) Date (METOP-B) Time (METOP-B) Lat,Lon (METOP-B) SZA (METOP-B ) Distance(km) Time Diff (sec)
1 09/11/2020 22:25:03 73.82,-161.94 69.69 09/11/2020 22:23:52 73.82,-161.90 69.70 1.51 71
2 09/11/2020 23:14:30 -73.90, 5.53 110.23 09/11/2020 23:14:32 -73.91, 5.63 110.22 3.20 2
3 09/12/2020 00:03:59 73.97, 173.00 69.87 09/12/2020 00:05:11 73.95, 173.07 69.84 3.42 72
4 09/14/2020 17:59:17 73.82, -95.50 70.76 09/14/2020 17:58:12 73.79, -95.56 70.74 3.12 65
5 09/14/2020 18:48:44 -73.88, 71.99 109.16 09/14/2020 18:48:52 -73.88, 71.98 109.17 0.33 8
6 09/14/2020 19:38:16 74.12,-120.92 71.11 09/14/2020 19:39:27 74.12,-120.11 71.08 24.60 71
7 09/17/2020 13:33:32 73.82, -29.07 71.84 09/17/2020 13:32:32 73.81, -29.10 71.84 1.04 60
8 09/17/2020 14:22:59 -73.88, 138.44 108.09 09/17/2020 14:23:12 -73.91, 138.46 108.06 3.26 13
9 09/17/2020 15:12:35 74.33, -54.97 72.41 09/17/2020 15:13:43 74.33, -53.15 72.36 54.55 68
10 09/20/2020 09:07:47 73.83, 37.35 72.93 09/20/2020 09:06:52 73.83, 37.36 72.95 0.72 55
11 09/20/2020 09:57:14 -73.88,-155.13 107.00 09/20/2020 09:57:33 -73.88,-155.19 107.00 2.16 19
12 09/20/2020 10:46:54 74.55, 10.96 73.72 09/20/2020 10:48:00 74.50, 13.69 73.61 81.26 66
13 09/23/2020 04:42:01 73.84, 103.76 74.04 09/23/2020 04:41:11 73.85, 103.81 74.05 2.23 50
14 09/23/2020 05:31:28 -73.88, -88.70 105.91 09/23/2020 05:31:52 -73.91, -88.73 105.89 2.75 24
